Terminal Aerodrome Forecast
Issued by NWS

Home | Current Version | Previous Version | Graphics & Text | Print | Product List | Glossary Off
Versions: 1 2 3 4 5 6 7 8 9 10 11 12 13 14 15 16 17 18 19 20 21 22 23 24 25 26 27 28 29 30 31 32 33 34 35 36 37 38 39 40 41 42 43 44 45 46 47 48 49 50

000
FTUS43 KLOT 220300 AAA
TAFGYY
TAF AMD
KGYY 220305Z 2203/2224 17011KT P6SM OVC035
     FM220600 20012KT P6SM VCSH SCT015 OVC025 WS020/22045KT
      TEMPO 2207/2211 3SM -FZRA BR BKN012 OVC020
     FM221200 21011KT 6SM BR VCSH BKN009 OVC015
     FM221900 21012KT P6SM OVC015=

USA.gov is the U.S. government's official web portal to all federal, state and local government web resources and services.